Regional Weather Roundup
Issued by NWS

Home | Current Version | Previous Version | Graphics & Text | Print | Product List | Glossary On
Versions: 1 2 3 4 5 6 7 8 9 10 11 12 13 14 15 16 17 18 19 20 21 22 23 24 25 26 27 28 29 30 31 32 33 34 35 36 37 38 39 40 41 42 43 44 45 46 47 48 49 50
000
ASUS45 KBOU 201407
RWRCO

WEATHER ROUNDUP FOR COLORADO
NATIONAL WEATHER SERVICE DENVER/BOULDER CO
800 AM MDT MON APR 20 2015

NOTE: "FAIR" INDICATES FEW OR NO CLOUDS BELOW 12000 FEET WITH NO
SIGNIFICANT WEATHER AND/OR OBSTRUCTIONS TO VISIBILITY.

COZ001>005-013-030-031-201500-
...NORTHWEST COLORADO...

CITY           SKY/WX    TMP DP  RH WIND       PRES   REMARKS
CRAIG          CLOUDY    36  34  92 NW3       30.05R
HAYDEN         CLOUDY    34  28  80 CALM      30.04R
MEEKER         MOSUNNY   36  32  85 CALM      30.04R
MOUNT WERNER   NOT AVBL
STEAMBOAT SPGS CLOUDY    32  30  94 E3        30.03F
WALDEN         CLOUDY    27  25  93 CALM      30.03R VSB 3/4
$$

COZ006>008-011-201500-
...WEST CENTRAL VALLEYS...

CITY           SKY/WX    TMP DP  RH WIND       PRES   REMARKS
GRAND JUNCTION SUNNY     44  41  89 SE10      30.00R
MONTROSE       PTSUNNY   42  40  92 CALM      30.05R
EAGLE          PTSUNNY   36  36 100 CALM      30.06R
RIFLE          CLOUDY    40  36  86 SE5       30.03R
DELTA          MOSUNNY   46  41  82 E3        30.03R
NUCLA          MOSUNNY   41  34  75 E6        30.05R
$$

COZ017>023-064>068-201500-
...SOUTHWEST COLORADO...

CITY           SKY/WX    TMP DP  RH WIND       PRES   REMARKS
DURANGO        MOSUNNY   38  23  55 CALM      30.02R
CORTEZ         MOSUNNY   40  30  67 E3        30.01R
PAGOSA SPRINGS MOSUNNY   40  26  59 N3        30.05S
TELLURIDE      CLOUDY    34  32  91 CALM      30.09R
WOLF CREEK PAS MOSUNNY   25  21  86 SW14G20   30.14R WCI  13
$$

COZ009-010-012-014-032>034-037-058>063-201500-
...CENTRAL COLORADO...

CITY           SKY/WX    TMP DP  RH WIND       PRES   REMARKS
ASPEN          PTSUNNY   33  28  81 SW3       30.03R
BUENA VISTA    PTSUNNY   26  23  89 W5        30.03S WCI  20
COPPER MTN     CLOUDY    25  19  80 W23G30    30.06R WCI  10
BERTHOUD PASS  CLOUDY    14   7  73 MISG      30.03R
COTTONWOOD PAS CLOUDY    34  27  75 CALM      30.04R
GUNNISON       PTSUNNY   36  28  75 N3        30.08R
KREMMLING      CLOUDY    32  28  86 CALM      30.06R
LEADVILLE      LGT SNOW  27  22  81 N8        30.03R WCI  19
MONARCH PASS   CLOUDY    21  21 100 MISG      30.18R
SALIDA         MOSUNNY   35  29  80 NW3       30.11R
SUNLIGHT       FOG       30  28  93 W5        30.12R VSB<1/4 WCI  25
WILKERSON PASS FOG       23  21  93 NW12G25   30.05S VSB 1/4 WCI  12
$$

COZ069>075-201500-
...SAN LUIS VALLEY/SANGRE DE CRISTO MOUNTAINS...

CITY           SKY/WX    TMP DP  RH WIND       PRES   REMARKS
ALAMOSA        CLOUDY    38  28  67 S7        30.03R
LA VETA PASS   CLOUDY    28  27  93 SW7       30.05S WCI  21
SAGUACHE       MOSUNNY   36  30  80 CALM      30.04S
$$

COZ035-036-038>040-201500-
...NORTHERN COLORADO FRONT RANGE...

CITY           SKY/WX    TMP DP  RH WIND       PRES   REMARKS
DENVER INTL AP MOSUNNY   33  30  88 SW5       30.04S WCI  29
DMNS CITY PARK   N/A     37  29  71 E3        30.04F
AURORA         NOT AVBL
FRONT RANGE AP CLOUDY    32  32 100 SW3       30.05S
ERIE MUNI ARPT PTSUNNY   35  33  94 CALM      30.05S
BOULDER MUN AP CLOUDY    36  32  87 CALM      30.03F
CENTENNIAL     MOSUNNY   35  25  66 VRB5      30.03F WCI  31
BROOMFIELD     PTSUNNY   34  32  93 CALM      30.04S
FORT COLLINS   SUNNY     34  30  86 S5        30.06R WCI  30
LONGMONT       PTSUNNY   40  32  75 S3        30.06S
$$

COZ041-046-047-076>085-087-088-201500-
...PIKES PEAK/PALMER DIVIDE AND SOUTHERN FOOTHILLS...

CITY           SKY/WX    TMP DP  RH WIND       PRES   REMARKS
COLO. SPRINGS  PTSUNNY   37  28  70 SW3       30.04S
A. F. ACADEMY  NOT AVBL
ELLICOTT       CLOUDY   N/A N/A N/A CALM      30.03R
FALCON         CLOUDY    33  27  80 N5        30.04S WCI  28
FORT CARSON    CLOUDY    37  30  74 NE1       30.03R
LIMON          PTSUNNY   35  27  72 N6        30.05R WCI  30
MONUMENT HILL  CLOUDY    30  27  86 CALM      30.02S
TRINIDAD       MOSUNNY   43  33  68 N6        30.00S
$$

COZ042>045-048>051-090-091-201500-
...NORTHEAST COLORADO...

CITY           SKY/WX    TMP DP  RH WIND       PRES   REMARKS
GREELEY ARPT   MOSUNNY   37  28  70 W3        30.06R
AKRON          CLOUDY    39  28  64 W14       30.02S
BURLINGTON     CLOUDY    41  29  62 NW9       30.03S
WRAY           PTSUNNY   42  29  61 W13       30.02F
STERLING       MOSUNNY   39  32  75 W15       30.03S
HOLYOKE        MOSUNNY   41  28  60 NW8       30.02R
FORT MORGAN    CLOUDY    38  31  76 W7        30.05R
$$

COZ086-089-092>099-201500-
...SOUTHEAST COLORADO...

CITY           SKY/WX    TMP DP  RH WIND       PRES   REMARKS
PUEBLO         MOSUNNY   39  32  76 CALM      30.04R
LA JUNTA       CLOUDY    42  34  73 N5        30.04R
LAMAR          CLOUDY    43  35  73 CALM      30.04R
SPRINGFIELD      N/A     42  31  64 CALM      30.04R
$$



USA.gov is the U.S. government's official web portal to all federal, state and local government web resources and services.